LPPTLPFR

Guest
Details From LPPT - Lisboa
To LPFR - Faro
Flight Number -
Tags generated
Created
Modified
Stats Distance 120 nm / 222 km
Max Altitude 6,800 ft / 2,073 m
Waypoints 3
Social Downloads 1
Likes 0
Share VATSIM

Download

Looking for another format? Having issues loading an existing format? Contact us
Advertisement - Login to hide

Notes

Basic altitude profile: - Ascent Rate: 2500ft/min - Ascent Speed: 250kts - Cruise Altitude: 12500ft - Cruise Speed: 420kts - Descent Rate: 1500ft/min - Descent Speed: 250kts Options: - Use NATs: yes - Use PACOTS: yes - Use low airways: yes - Use high airways: yes

Route

LPPT ADSAD LPFR

ID Type Via Altitude Latitude Longitude Leg Dist Tot Dist Heading (true) Name
O LPPT APT - 0 ft / 0 m 38.77856˚ -9.13515˚ - 0 nm - Lisboa
ADSAD FIX - 6,800 ft / 2,073 m 38.47806˚ -8.99778˚ 19 nm 19 nm 160° / 160° -
O LPFR APT - 0 ft / 0 m 37.01534˚ -7.97233˚ 100 nm 119 nm 151° / 151° Faro

Altitude Profile

Advertisement - Login to hide

LPPT

Details ICAO LPPT (LIS)
Name Lisboa
Region Portugal
Timezone Europe/Lisbon (UTC+1.0)
Stats Elevation 374 ft / 114 m (AMSL)
Location 38.778559° -9.135146°
Runways 2
Magnetic Variation 2.424° W

METAR

LPPT 232000Z 31010KT CAVOK 22/12 Q1022

Decode

TAF

TAF LPPT 231700Z 2318/2424 33010KT 9999 FEW025 BECMG 2322/2324 34005KT 9999 SCT012 BECMG 2409/2412 35013KT FEW030

Decode

Departure Runways

ID Width Length Bearing (true) Bearing (mag) Surface Threshold Offset Overrun Length
03 148 ft / 45 m 12,518 ft / 3,815 m 22.70° 25.12° Asphalt 296 ft / 90 m 0 ft / 0 m
17 148 ft / 45 m 7,922 ft / 2,415 m 168.38° 170.80° Asphalt 0 ft / 0 m 0 ft / 0 m
21 148 ft / 45 m 12,518 ft / 3,815 m 202.72° 205.14° Asphalt 1,969 ft / 600 m 0 ft / 0 m
35 148 ft / 45 m 7,922 ft / 2,415 m 348.38° 350.80° Asphalt 492 ft / 150 m 0 ft / 0 m

LPFR

Details ICAO LPFR (FAO)
Name Faro
Region Portugal
Timezone Europe/Lisbon (UTC+1.0)
Stats Elevation 24 ft / 7 m (AMSL)
Location 37.015336° -7.972327°
Runways 1
Magnetic Variation 1.993° W

METAR

LPFR 232000Z 33008KT CAVOK 33/06 Q1020

Decode

TAF

TAF LPFR 231700Z 2318/2418 27015KT CAVOK BECMG 2319/2321 31010KT BECMG 2323/2402 VRB03KT PROB40 2400/2418 34012KT

Decode

Destination Runways

ID Width Length Bearing (true) Bearing (mag) Surface Threshold Offset Overrun Length
10 148 ft / 45 m 8,148 ft / 2,484 m 100.08° 102.07° Asphalt 148 ft / 45 m 0 ft / 0 m
28 148 ft / 45 m 8,148 ft / 2,484 m 280.10° 282.09° Asphalt 148 ft / 45 m 0 ft / 0 m

Approach Navaids

Runway Type Ident Frequency Range Bearing (true) Bearing (mag) Slope Elevation
28 Localiser IIF 109.50 MHz 18 nm / 33 km 280.16° 282.15° - 24 ft / 7 m (AMSL)
28 Glidescope IIF 109.50 MHz 10 nm / 19 km 280.09° 282.08° 3.00° 24 ft / 7 m (AMSL)
28 DME IIF 109.50 MHz 18 nm / 33 km - - - 24 ft / 7 m (AMSL)

Popular Alternatives